| time (UTC) | temp C | wind direction | speed KPH | gust KPH | rain 1hr cm | rain 24hr cm | rain mn cm | humidity % | barometer mb |
| 20260509203537 | 19 | 315 | 1.6 | 3.2 | 0.00 | 0.00 | 0.00 | 56 | 1019.7 |
| 20260509202615 | 18 | 324 | 3.2 | 6.4 | 0.00 | 0.00 | 0.00 | 56 | 1019.8 |
| 20260509201614 | 18 | 354 | 3.2 | 9.7 | 0.00 | 0.00 | 0.00 | 57 | 1019.9 |
| 20260509200612 | 18 | 337 | 3.2 | 9.7 | 0.00 | 0.00 | 0.00 | 57 | 1020.0 |
| 20260509195610 | 18 | 3 | 3.2 | 12.9 | 0.00 | 0.00 | 0.00 | 60 | 1020.2 |
| 20260509194629 | 18 | 356 | 4.8 | 12.9 | 0.00 | 0.00 | 0.00 | 59 | 1020.4 |
| 20260509193607 | 18 | 345 | 3.2 | 6.4 | 0.00 | 0.00 | 0.00 | 60 | 1020.5 |
| 20260509192625 | 17 | 357 | 4.8 | 11.3 | 0.00 | 0.00 | 0.00 | 60 | 1020.6 |
| 20260509191603 | 17 | 20 | 4.8 | 14.5 | 0.00 | 0.00 | 0.00 | 61 | 1020.7 |
| 20260509190601 | 17 | 346 | 4.8 | 9.7 | 0.00 | 0.00 | 0.00 | 61 | 1020.8 |
| 20260509185619 | 17 | 2 | 6.4 | 9.7 | 0.00 | 0.00 | 0.00 | 61 | 1020.9 |
| 20260509184618 | 17 | 351 | 6.4 | 12.9 | 0.00 | 0.00 | 0.00 | 62 | 1020.9 |
| 20260509183556 | 16 | 359 | 6.4 | 11.3 | 0.00 | 0.00 | 0.00 | 66 | 1020.9 |
| 20260509182554 | 16 | 8 | 6.4 | 14.5 | 0.00 | 0.00 | 0.00 | 66 | 1020.9 |
| 20260509181612 | 16 | 1 | 8.0 | 12.9 | 0.00 | 0.00 | 0.00 | 66 | 1020.9 |
| 20260509180611 | 16 | 2 | 6.4 | 12.9 | 0.00 | 0.00 | 0.00 | 68 | 1021.0 |
| 20260509175608 | 16 | 340 | 1.6 | 6.4 | 0.00 | 0.00 | 0.00 | 69 | 1021.1 |
| 20260509174547 | 16 | 10 | 6.4 | 11.3 | 0.00 | 0.00 | 0.00 | 70 | 1021.2 |
| 20260509173545 | 16 | 1 | 4.8 | 9.7 | 0.00 | 0.00 | 0.00 | 69 | 1021.2 |
| 20260509172604 | 16 | 10 | 4.8 | 9.7 | 0.00 | 0.00 | 0.00 | 70 | 1021.3 |
| 20260509171622 | 15 | 345 | 3.2 | 4.8 | 0.00 | 0.00 | 0.00 | 70 | 1021.3 |
| 20260509170540 | 15 | 15 | 1.6 | 4.8 | 0.00 | 0.00 | 0.00 | 72 | 1021.3 |
| 20260509165538 | 15 | 5 | 4.8 | 9.7 | 0.00 | 0.00 | 0.00 | 74 | 1021.3 |
| 20260509164537 | 15 | 355 | 4.8 | 11.3 | 0.00 | 0.00 | 0.00 | 72 | 1021.5 |
| 20260509163535 | 15 | 4 | 4.8 | 9.7 | 0.00 | 0.00 | 0.00 | 72 | 1021.7 |
| 20260509162533 | 15 | 11 | 3.2 | 12.9 | 0.00 | 0.00 | 0.00 | 71 | 1021.6 |
| 20260509161551 | 16 | 21 | 1.6 | 4.8 | 0.00 | 0.00 | 0.00 | 70 | 1021.7 |
| 20260509160550 | 15 | 35 | 1.6 | 3.2 | 0.00 | 0.00 | 0.00 | 70 | 1021.7 |
| 20260509155528 | 16 | 72 | 1.6 | 1.6 | 0.00 | 0.00 | 0.00 | 69 | 1021.9 |
| 20260509154546 | 17 | 57 | 1.6 | 4.8 | 0.00 | 0.00 | 0.00 | 65 | 1022.1 |
| 20260509153524 | 18 | 96 | 1.6 | 4.8 | 0.00 | 0.00 | 0.00 | 63 | 1022.2 |
| 20260509152523 | 19 | 121 | 0.0 | 1.6 | 0.00 | 0.00 | 0.00 | 61 | 1022.1 |
| 20260509151521 | 21 | 99 | 1.6 | 4.8 | 0.00 | 0.00 | 0.00 | 58 | 1022.1 |
| 20260509150519 | 22 | 156 | 1.6 | 3.2 | 0.00 | 0.00 | 0.00 | 63 | 1022.2 |
| 20260509145518 | 20 | 168 | 1.6 | 3.2 | 0.00 | 0.00 | 0.00 | 69 | 1022.4 |
| 20260509144516 | 17 | 192 | 1.6 | 3.2 | 0.00 | 0.00 | 0.00 | 76 | 1022.4 |
| 20260509143614 | 15 | 194 | 0.0 | 1.6 | 0.00 | 0.00 | 0.00 | 89 | 1022.4 |
| 20260509142613 | 11 | 193 | 0.0 | 1.6 | 0.00 | 0.00 | 0.00 | 91 | 1022.4 |
| 20260509141611 | 10 | 195 | 1.6 | 3.2 | 0.00 | 0.00 | 0.00 | 91 | 1022.4 |
| 20260509140609 | 9 | 250 | 1.6 | 3.2 | 0.00 | 0.00 | 0.00 | 91 | 1022.5 |
| 20260509135608 | 8 | 251 | 1.6 | 3.2 | 0.00 | 0.00 | 0.00 | 91 | 1022.5 |
| 20260509134606 | 8 | 251 | 0.0 | 1.6 | 0.00 | 0.00 | 0.00 | 91 | 1022.6 |
| 20260509133704 | 8 | 0.0 | 0.0 | 0.00 | 0.00 | 0.00 | 90 | 1022.6 | |
| 20260509132623 | 8 | 0.0 | 0.0 | 0.00 | 0.00 | 0.00 | 90 | 1022.7 | |
| 20260509131601 | 8 | 0.0 | 0.0 | 0.00 | 0.00 | 0.00 | 90 | 1022.7 | |
| 20260509130619 | 8 | 0.0 | 0.0 | 0.00 | 0.00 | 0.00 | 90 | 1022.7 | |
| 20260509125557 | 7 | 0.0 | 0.0 | 0.00 | 0.00 | 0.00 | 90 | 1022.6 | |
| 20260509124615 | 7 | 0.0 | 0.0 | 0.00 | 0.00 | 0.00 | 89 | 1022.6 | |
| 20260509123554 | 7 | 0.0 | 0.0 | 0.00 | 0.00 | 0.00 | 89 | 1022.6 | |
| 20260509122552 | 7 | 0.0 | 0.0 | 0.00 | 0.00 | 0.00 | 88 | 1022.5 | |
| 20260509121550 | 8 | 0.0 | 0.0 | 0.00 | 0.00 | 0.00 | 88 | 1022.5 | |
| 20260509120549 | 8 | 0.0 | 0.0 | 0.00 | 0.00 | 0.00 | 88 | 1022.7 | |
| 20260509115547 | 8 | 0.0 | 0.0 | 0.00 | 0.00 | 0.00 | 88 | 1022.9 | |
| 20260509114546 | 8 | 0.0 | 0.0 | 0.00 | 0.00 | 0.00 | 88 | 1022.7 | |
| 20260509113544 | 8 | 0.0 | 0.0 | 0.00 | 0.00 | 0.00 | 87 | 1022.7 | |
| 20260509112542 | 8 | 0.0 | 0.0 | 0.00 | 0.00 | 0.00 | 87 | 1022.7 | |
| 20260509111540 | 8 | 0.0 | 0.0 | 0.00 | 0.00 | 0.00 | 87 | 1022.7 | |
| 20260509110558 | 8 | 0.0 | 0.0 | 0.00 | 0.00 | 0.00 | 87 | 1022.8 | |
| 20260509105537 | 8 | 0.0 | 0.0 | 0.00 | 0.00 | 0.00 | 86 | 1022.9 | |
| 20260509104555 | 8 | 0.0 | 0.0 | 0.00 | 0.00 | 0.00 | 85 | 1022.9 | |
| 20260509103533 | 9 | 0.0 | 0.0 | 0.00 | 0.00 | 0.00 | 84 | 1022.9 | |
| 20260509102531 | 9 | 0.0 | 0.0 | 0.00 | 0.00 | 0.00 | 84 | 1022.8 | |
| 20260509101530 | 10 | 0.0 | 0.0 | 0.00 | 0.00 | 0.00 | 83 | 1023.1 | |
| 20260509100528 | 10 | 0.0 | 0.0 | 0.00 | 0.00 | 0.00 | 83 | 1023.0 | |
| 20260509095526 | 10 | 0.0 | 0.0 | 0.00 | 0.00 | 0.00 | 83 | 1023.1 | |
| 20260509094525 | 10 | 0.0 | 0.0 | 0.00 | 0.00 | 0.00 | 83 | 1023.2 | |
| 20260509093543 | 10 | 0.0 | 0.0 | 0.00 | 0.00 | 0.00 | 81 | 1023.2 | |
| 20260509092521 | 11 | 251 | 0.0 | 1.6 | 0.00 | 0.00 | 0.00 | 81 | 1023.3 |
| 20260509091540 | 11 | 251 | 0.0 | 1.6 | 0.00 | 0.00 | 0.00 | 81 | 1023.3 |
| 20260509090518 | 11 | 251 | 0.0 | 1.6 | 0.00 | 0.00 | 0.00 | 81 | 1023.4 |
| 20260509085516 | 11 | 244 | 1.6 | 1.6 | 0.00 | 0.00 | 0.00 | 82 | 1023.3 |
| 20260509084614 | 11 | 239 | 3.2 | 6.4 | 0.00 | 0.00 | 0.00 | 82 | 1023.4 |
| 20260509083617 | 11 | 229 | 1.6 | 4.8 | 0.00 | 0.00 | 0.00 | 82 | 1023.5 |
| 20260509082611 | 11 | 237 | 1.6 | 3.2 | 0.00 | 0.00 | 0.00 | 82 | 1023.4 |
| 20260509081609 | 11 | 237 | 1.6 | 3.2 | 0.00 | 0.00 | 0.00 | 82 | 1023.5 |
| 20260509080608 | 11 | 236 | 1.6 | 3.2 | 0.00 | 0.00 | 0.00 | 82 | 1023.4 |
| 20260509075606 | 11 | 225 | 1.6 | 4.8 | 0.00 | 0.00 | 0.00 | 82 | 1023.3 |
| 20260509074604 | 11 | 223 | 1.6 | 1.6 | 0.00 | 0.00 | 0.00 | 82 | 1023.2 |
| 20260509073622 | 11 | 231 | 1.6 | 3.2 | 0.00 | 0.00 | 0.00 | 82 | 1023.3 |
| 20260509072601 | 11 | 216 | 1.6 | 1.6 | 0.00 | 0.00 | 0.00 | 82 | 1023.3 |
| 20260509071559 | 11 | 229 | 1.6 | 3.2 | 0.00 | 0.00 | 0.00 | 82 | 1023.2 |
| 20260509070557 | 11 | 232 | 1.6 | 3.2 | 0.00 | 0.00 | 0.00 | 82 | 1023.2 |
| 20260509065555 | 10 | 235 | 0.0 | 1.6 | 0.00 | 0.00 | 0.00 | 81 | 1023.3 |
| 20260509064634 | 11 | 0.0 | 0.0 | 0.00 | 0.00 | 0.00 | 81 | 1023.2 | |
| 20260509063551 | 11 | 209 | 0.0 | 1.6 | 0.00 | 0.00 | 0.00 | 81 | 1023.2 |
| 20260509062550 | 11 | 216 | 0.0 | 1.6 | 0.00 | 0.00 | 0.00 | 81 | 1023.2 |
| 20260509061548 | 11 | 0.0 | 0.0 | 0.00 | 0.00 | 0.00 | 80 | 1023.1 | |
| 20260509060546 | 11 | 213 | 1.6 | 3.2 | 0.00 | 0.00 | 0.00 | 80 | 1023.0 |
| 20260509055545 | 11 | 237 | 1.6 | 3.2 | 0.00 | 0.00 | 0.00 | 79 | 1023.0 |
| 20260509054543 | 11 | 224 | 1.6 | 3.2 | 0.00 | 0.00 | 0.00 | 79 | 1022.9 |
| 20260509053542 | 11 | 228 | 3.2 | 4.8 | 0.00 | 0.00 | 0.00 | 78 | 1022.8 |
| 20260509052539 | 11 | 218 | 3.2 | 4.8 | 0.00 | 0.00 | 0.00 | 77 | 1022.9 |
| 20260509051538 | 11 | 232 | 3.2 | 6.4 | 0.00 | 0.00 | 0.00 | 76 | 1022.8 |
| 20260509050536 | 11 | 238 | 3.2 | 6.4 | 0.00 | 0.00 | 0.00 | 75 | 1022.8 |
| 20260509045534 | 11 | 244 | 3.2 | 4.8 | 0.00 | 0.00 | 0.00 | 75 | 1022.8 |
| 20260509044533 | 12 | 242 | 3.2 | 4.8 | 0.00 | 0.00 | 0.00 | 75 | 1022.8 |
| 20260509043531 | 12 | 236 | 4.8 | 9.7 | 0.00 | 0.00 | 0.00 | 74 | 1022.8 |
| 20260509042529 | 12 | 240 | 4.8 | 9.7 | 0.00 | 0.00 | 0.00 | 73 | 1022.8 |
| 20260509041547 | 12 | 251 | 3.2 | 9.7 | 0.00 | 0.00 | 0.00 | 72 | 1022.6 |
| 20260509040526 | 12 | 238 | 3.2 | 9.7 | 0.00 | 0.00 | 0.00 | 72 | 1022.5 |
| 20260509035524 | 12 | 262 | 3.2 | 11.3 | 0.00 | 0.00 | 0.00 | 71 | 1022.4 |
| 20260509034523 | 13 | 259 | 4.8 | 11.3 | 0.00 | 0.00 | 0.00 | 70 | 1022.3 |
| 20260509033521 | 13 | 257 | 3.2 | 9.7 | 0.00 | 0.00 | 0.00 | 69 | 1022.2 |
| 20260509032519 | 13 | 246 | 1.6 | 4.8 | 0.00 | 0.00 | 0.00 | 67 | 1022.2 |
| 20260509031517 | 14 | 244 | 1.6 | 4.8 | 0.00 | 0.00 | 0.00 | 66 | 1022.1 |
| 20260509030515 | 14 | 252 | 4.8 | 11.3 | 0.00 | 0.00 | 0.00 | 64 | 1022.2 |
| 20260509025614 | 15 | 249 | 3.2 | 6.4 | 0.00 | 0.00 | 0.00 | 63 | 1022.0 |
| 20260509024653 | 15 | 265 | 3.2 | 11.3 | 0.00 | 0.00 | 0.00 | 63 | 1021.8 |
| 20260509023613 | 15 | 260 | 4.8 | 11.3 | 0.00 | 0.00 | 0.00 | 62 | 1021.7 |
| 20260509022709 | 16 | 270 | 3.2 | 6.4 | 0.00 | 0.00 | 0.00 | 61 | 1021.8 |
| 20260509021607 | 16 | 284 | 6.4 | 16.1 | 0.00 | 0.00 | 0.00 | 60 | 1021.6 |
| 20260509020605 | 16 | 264 | 1.6 | 9.7 | 0.00 | 0.00 | 0.00 | 60 | 1021.6 |
| 20260509015606 | 16 | 268 | 4.8 | 6.4 | 0.00 | 0.00 | 0.00 | 59 | 1021.7 |
| 20260509014622 | 16 | 279 | 4.8 | 12.9 | 0.00 | 0.00 | 0.00 | 58 | 1021.7 |
| 20260509013600 | 17 | 260 | 4.8 | 12.9 | 0.00 | 0.00 | 0.00 | 56 | 1021.7 |
| 20260509012559 | 17 | 261 | 3.2 | 9.7 | 0.00 | 0.00 | 0.00 | 55 | 1021.6 |
| 20260509011557 | 17 | 225 | 3.2 | 6.4 | 0.00 | 0.00 | 0.00 | 55 | 1021.6 |
| 20260509010555 | 17 | 249 | 4.8 | 9.7 | 0.00 | 0.00 | 0.00 | 55 | 1021.7 |
| 20260509005553 | 17 | 262 | 4.8 | 12.9 | 0.00 | 0.00 | 0.00 | 54 | 1021.9 |
| 20260509004552 | 17 | 243 | 6.4 | 16.1 | 0.00 | 0.00 | 0.00 | 54 | 1021.7 |
| 20260509003550 | 17 | 247 | 4.8 | 12.9 | 0.00 | 0.00 | 0.00 | 54 | 1021.8 |
| 20260509002548 | 17 | 240 | 11.3 | 17.7 | 0.00 | 0.00 | 0.00 | 54 | 1021.7 |
| 20260509001547 | 17 | 260 | 6.4 | 12.9 | 0.00 | 0.00 | 0.00 | 53 | 1021.7 |
| 20260509000545 | 18 | 288 | 6.4 | 17.7 | 0.00 | 0.00 | 0.00 | 52 | 1021.6 |
| 20260508235543 | 18 | 254 | 6.4 | 11.3 | 0.00 | 0.00 | 0.00 | 53 | 1021.6 |
| 20260508234542 | 17 | 274 | 3.2 | 9.7 | 0.00 | 0.00 | 0.00 | 52 | 1021.6 |
| 20260508233620 | 17 | 260 | 6.4 | 12.9 | 0.00 | 0.00 | 0.00 | 52 | 1021.6 |
| 20260508232538 | 18 | 242 | 6.4 | 16.1 | 0.00 | 0.00 | 0.00 | 53 | 1021.6 |
| 20260508231536 | 17 | 253 | 9.7 | 17.7 | 0.00 | 0.00 | 0.00 | 53 | 1021.5 |
| 20260508230535 | 18 | 245 | 6.4 | 14.5 | 0.00 | 0.00 | 0.00 | 52 | 1021.6 |
| 20260508225535 | 18 | 267 | 3.2 | 9.7 | 0.00 | 0.00 | 0.00 | 52 | 1021.6 |
| 20260508224531 | 18 | 251 | 8.0 | 12.9 | 0.00 | 0.00 | 0.00 | 51 | 1021.6 |
| 20260508223529 | 19 | 258 | 4.8 | 11.3 | 0.00 | 0.00 | 0.00 | 50 | 1021.6 |
| 20260508222528 | 18 | 223 | 8.0 | 16.1 | 0.00 | 0.00 | 0.00 | 50 | 1021.7 |
| 20260508221526 | 18 | 212 | 6.4 | 14.5 | 0.00 | 0.00 | 0.00 | 50 | 1021.5 |
| 20260508220525 | 18 | 188 | 9.7 | 14.5 | 0.00 | 0.00 | 0.00 | 51 | 1021.5 |
| 20260508215523 | 18 | 256 | 6.4 | 12.9 | 0.00 | 0.00 | 0.00 | 50 | 1021.6 |
| 20260508214541 | 18 | 236 | 6.4 | 12.9 | 0.00 | 0.00 | 0.00 | 49 | 1021.7 |
| 20260508213519 | 18 | 218 | 8.0 | 24.1 | 0.00 | 0.00 | 0.00 | 49 | 1021.8 |
| 20260508212517 | 19 | 228 | 11.3 | 20.9 | 0.00 | 0.00 | 0.00 | 48 | 1021.8 |
| 20260508211516 | 19 | 232 | 6.4 | 20.9 | 0.00 | 0.00 | 0.00 | 50 | 1021.7 |
| 20260508210634 | 20 | 241 | 6.4 | 11.3 | 0.00 | 0.00 | 0.00 | 50 | 1021.7 |
| 20260508205633 | 19 | 226 | 8.0 | 12.9 | 0.00 | 0.00 | 0.00 | 50 | 1021.6 |
| 20260508204611 | 18 | 201 | 6.4 | 14.5 | 0.00 | 0.00 | 0.00 | 52 | 1021.5 |